Location: Ballingbuur
(53.0000°N, 5.7667°E)
Time: 06:38:22
(UTC+00:00)

Cosmos 1898 Rocket - Pass Details

Date: 29 November 2020
Orbit: 754 x 783 km, 74.0° (Epoch: 23 January)

Event Time Altitude Azimuth Distance (km) Brightness Sun altitude
Rises 04:46:41 0° 190° (S) 3,249 6.7 -22.8°
Reaches altitude 10° 04:49:05 10° 186° (S) 2,329 6.0 -22.4°
Maximum altitude 04:54:15 57° 109° (ESE) 923 4.2 -21.7°
Drops below altitude 10° 04:59:29 10° 32° (NNE) 2,352 6.3 -20.9°
Sets 05:01:55 0° 29° (NNE) 3,285 7.0 -20.5°
